Location: Manhattan
(39.1840°N, 96.5710°W)
Time: 12:18:01
(UTC-05:00)

ISS - Visible Passes

Search period start: 22 September 2018 00:00
Search period end: 02 October 2018 00:00
Orbit: 403 x 408 km, 51.6° (Epoch: 22 September)

Date Brightness Start Highest point End Pass type
(mag) Time Alt. Az. Time Alt. Az. Time Alt. Az.
22 Sep -2.9 21:08:56 10° WSW 21:12:06 45° NNW 21:12:28 43° NNW visible
23 Sep -3.8 20:16:55 10° SW 20:20:13 87° NW 20:23:10 12° NE visible
23 Sep -0.6 21:54:55 10° WNW 21:55:53 14° NW 21:55:53 14° NW visible
24 Sep -1.6 21:02:18 10° W 21:05:02 23° NNW 21:06:23 18° N visible
25 Sep -2.4 20:09:54 10° W 20:12:59 36° NNW 20:16:05 10° NE visible
25 Sep -0.5 21:48:58 10° NW 21:49:26 11° NNW 21:49:26 11° NNW visible
26 Sep -1.1 20:56:04 10° NW 20:58:02 15° NNW 20:59:41 11° NNE visible
27 Sep -1.5 20:03:20 10° WNW 20:05:53 20° NNW 20:08:25 10° NNE visible
28 Sep -0.9 20:50:09 10° NNW 20:51:07 11° N 20:52:05 10° N visible
29 Sep -1.1 19:57:07 10° NW 19:58:50 13° NNW 20:00:33 10° NNE visible
01 Oct -1.0 19:51:15 10° NNW 19:51:52 10° N 19:52:28 10° N visible
